カタログに戻る

EXPLORER 7

運用中科学VLEO
NORAD 22·PAYLOAD·🇺🇸 United States

打ち上げ Oct 13, 1959 から Cape Canaveral Space Force Station

Loading…

次のパス (今後24時間)

TLE

最新Source: Space-Track

元期: Sep 6, 2026, 06:40 UTC

1 00022U 59009A   26249.27780274  .00009824  00000-0  31254-3 0  9998
2 00022  50.2416  58.6063 0074331  92.8848 268.0623 15.30562573812767

AllMySatでEXPLORER 7をリアルタイム追跡

Download on the App Store